weather.gov     
National Weather Service

Terminal Aerodrome Forecast
NWS Homepage
This page is being discontinued on March 12, 2014.
The same data is available at this site. Please update your bookmarks.
Thank you, and we apologize for the inconvenience.
Please send an email to SR-SRH.Webmaster@noaa.gov with any concerns.


Current Version
Previous Version:    01  02  03  04  05  06  07  08  09  10  11  12  13  14  15  16  17  18  19  20  21  22  23  24  25  26  27  28  29  30  
   31  32  33  34  35  36  37  
[Printable]
759
FTUS44 KLCH 020600 AAA
TAFLFT
TAF AMD
KLFT 020607Z 0206/0306 16003KT P6SM VCSH BKN005
      TEMPO 0210/0213 5SM BR
     FM021400 17005KT P6SM VCSH BKN025
     FM021700 19008KT P6SM VCTS SCT035CB BKN050
     FM030200 18005KT P6SM VCSH BKN015=


U.S. Dept. of Commerce
NOAA National Weather Service
1325 East West Highway
Silver Spring, MD 20910
E-mail: w-nws.webmaster@noaa.gov
Page last modified: May 16, 2007
NATIONAL WEATHER SERVICE: for Safety, for Work, for Fun - FOR LIFE